INTELSAT 33E DEB, 61998

Orbit data source: Space-Track

INTELSAT 33E DEB, 61998 is space debris in GEO originally from a launch on Wed, 24 Aug 2016 UTC launched from the French Guiana (FRGUI). Debris objects in space refer to the collection of defunct objects orbiting the Earth. Examples of debris include non-operational satellites, rocket bodies, and fragments generated from explosions, collisions, or faulty payload assembly.

Not visible in the next 10 days
Identifier
61998, 2016-053Q
Orbit
GEO
Country
Flag of USUS / ITSO
Related business
Manufacturer
Boeing/ES
Mission
Spacecraft
Bus & Motor
Unknown
Mass
Unknown
Launch date (UTC)
2016-08-24 (10 years ago)
Launch vehicle
Unknown
Launch site
French Guiana (FRGUI)
Object type
Payload
Rocket body
Debris
Shape & HBR
Unknown shape, 1.1 m
Radar Cross Section
RCS unknown

Expand to show TLE details & history
Last TLE update: 21 hours ago

TLE from 21 hours ago
0 INTELSAT 33E DEB
1 61998U 16053Q   26120.66899484 -.00000101  00000-0  00000-0 0  9996
2 61998   1.4367  83.6988 0026556 300.3546  59.4994  1.00394810  5622
Epoch: 2026-04-30T16:03Z
TLE epoch observation values (Epoch: 2026-04-30T16:03:21.154Z)
Latitude
-0.00001°
Longitude
-15.63611°
Altitude
35,694.555 km
Speed
3.08 km/s
True Right ascension
05h 35m 15s
True Declination
0° 00' 00"
Sunlit
Object was in daylight at epoch
Visualization orbit readout
Latitude
Unknown
Longitude
Unknown
Altitude
Unknown
Speed
Unknown
Apparent Right ascension
Unknown
Apparent Declination
Unknown
Sunlit
N/A
Visualization observer readout
Local Sidereal Time
20:33:27
Azimuth
Unknown
Elevation
Unknown
Doppler factor
Unknown
Orbital elements
Apogee altitude
35,865.096 km
Perigee altitude
35,641.328 km
Semi-major axis
42,131.349 km
Eccentricity
0.00266
Inclination
1.4367°
RAAN
83.6988°
Arg. of periapsis
300.3546°
True anomaly
59.76204°
Mean anomaly
59.4994°
Eccentric anomaly
59.63068°
Mean motion
0.25098 °/min
Orbital period
1,434.39 mins
BSTAR
0
Loading maneuver chart data...
Computing Atmospheric mass density...
Loading historical data...
Loading historical data...
Loading historical data...
Loading historical data...
Loading historical data...
Loading historical data...
Loading historical data...

Documentation

Showing up to 5 results
|